Погода в Северном

Украина / Донецкая область     48°05′08″N   38°41′39″E
темп.,
°C
ветер,
м/с
пор.,
м/с
влажн.,
%
обл.,
%
осадки,
мм/ч
давл.,
гПа
погр.,
м
18 мая, ср
ср1800:00+9ююз227013 0.0 101223
03:00+9сз2271100 0.0 101233
06:00+10св1169100 0.0 101127
09:00+12всв4472100 0.1 1010566
12:00+10св5792100 3.1 1010369
15:00+10св4691100 9.4 1011433
18:00+9св5894100 2.3 1010445
21:00+8ссв61194100 5.6 1011555
19 мая, чт
чт1900:00+8св51194100 1.8 1012527
03:00+9св61393100 2.4 1012653
06:00+8с71393100 1.5 1013696
09:00+8ссв81490100 4.8 1014717
12:00+9св81387100 0.8 1015786
15:00+9св51188100 1.4 1016616
18:00+9ссз3695100 4.4 1016217
21:00+8зсз229280 5.8 101813
20 мая, пт
пт2000:00+9сз2384100 0.0 101853
03:00+8сз358799 0.0 101887
06:00+8сз398798 0.0 1019215
09:00+14сз57645 0.0 1020824
12:00+17сз565257 0.4 10191832
15:00+16ссз3558100 0.6 10181371
18:00+15з1167100 0.1 101813
21:00+12зюз1271100 0.1 101811
21 мая, сб
сб2100:00+12юз2473100 0.0 101580
03:00+10ююз5993100 0.9 1013212
06:00+11юз5148879 0.0 1010459
09:00+14юз91778100 0.0 1008753
12:00+15юз101781100 0.1 10051179
15:00+19зюз101569100 1.2 10032019
18:00+15зсз9138341 1.1 10041060
21:00+6с81387100 1.2 1011671
22 мая, вс
вс2200:00+6ссв61282100 0.0 1012618
03:00+4ссв238998 0.0 101362
06:00+6ссв138465 0.0 1013128
09:00+10вюв3366100 0.0 1012802
12:00+11юв2258100 0.0 10101242
15:00+12юв2360100 0.2 10091187
18:00+11св3471100 0.3 1009629
21:00+8в127986 0.5 100914